Location: *
(51.1248°S, 108.4023°W)
Time: 05:13:37
(UTC+00:00)

Cosmos 1821 Rocket - Pass Details

Date: 15 June 2021
Orbit: 944 x 1005 km, 82.9° (Epoch: 31 July)

Event Time Altitude Azimuth Distance (km) Brightness Sun altitude
Rises 14:31:39 0° 189° (S) 3,706 6.7 -6.7°
Reaches altitude 10° 14:34:12 10° 186° (S) 2,761 6.0 -6.4°
Maximum altitude 14:40:32 69° 103° (ESE) 1,066 4.5 -5.5°
Drops below altitude 10° 14:46:54 10° 19° (NNE) 2,770 7.2 -4.7°
Sets 14:49:26 0° 16° (NNE) 3,718 7.9 -4.3°
